Location: Bohy
(49.9380°N, 13.5753°E)
Time: 18:49:47
(UTC+00:00)

Cosmos 2181 Rocket - Pass Details

Date: 19 May 2025
Orbit: 952 x 1013 km, 82.9° (Epoch: 20 June)

Event Time Altitude Azimuth Distance (km) Brightness Sun altitude
Exits shadow 20:58:42 15° 185° (S) 2,404 5.6 -14.9°
Maximum altitude 21:04:06 85° 98° (E) 1,002 4.0 -15.4°
Drops below altitude 10° 21:10:31 10° 11° (N) 2,785 7.2 -15.8°
Sets 21:13:05 0° 11° (N) 3,746 7.9 -16.0°
